Theta_e
291 293 296 301 303 305 307 307 309 310 310 309 309 309 310 310 310 311 312 310 309 307 310 312 315 318 319 320 320 319 318 318 318 318 318 319 321 322 324 329 331 333 334 335 336 336 336 333 335 336 335 335 335 334 334 333 333 332 332 332 332 332 332 332 332 332 331 330 329 330 330 331 331 332 333 334 335 335 334 335 335 335 336 336 335
290 292 294 298 301 304 304 305 307 309 310 309 309 309 309 310 309 310 310 310 311 311 313 314 315 317 320 318 318 317 317 316 317 317 318 319 319 321 323 325 329 331 329 332 333 334 334 334 334 333 333 333 333 333 331 331 331 332 331 332 332 332 332 331 331 330 329 328 328 329 330 330 330 331 331 331 332 333 333 335 336 335 335 334 334
290 291 293 296 299 301 302 303 305 307 309 309 310 309 309 309 309 309 310 310 310 311 312 313 314 316 316 316 315 316 315 316 316 316 317 318 318 318 322 324 326 330 331 329 331 332 332 332 333 333 332 333 331 331 331 331 331 331 331 331 332 332 332 332 331 329 329 329 329 329 329 329 329 329 329 330 332 333 333 333 334 336 336 336 336
289 291 293 294 296 299 300 302 303 306 308 308 309 309 308 308 310 310 310 310 310 310 311 311 312 313 315 315 315 314 314 315 315 315 315 316 316 317 318 320 322 325 328 332 332 331 331 331 331 331 332 331 331 330 331 331 331 332 332 332 331 331 332 331 330 330 329 328 328 328 329 329 329 329 330 330 330 330 331 332 333 333 335 336 335
289 290 294 292 295 297 299 300 302 304 306 307 308 308 307 305 307 309 309 309 309 308 309 309 308 309 311 312 313 313 313 313 313 313 313 313 314 314 314 314 315 319 321 323 326 330 331 331 330 330 330 330 330 330 331 331 331 332 332 332 332 332 332 331 331 330 329 328 328 328 328 328 328 328 329 329 329 329 331 332 333 334 334 335 336
289 290 290 291 293 295 296 298 300 302 304 305 306 307 307 306 306 308 307 307 307 307 308 308 307 308 308 309 310 310 311 312 311 312 312 311 310 312 312 313 312 312 314 319 321 324 327 328 329 329 329 330 330 330 330 330 331 332 332 332 331 331 332 332 332 330 329 328 328 327 328 328 328 328 328 329 329 330 331 332 332 333 334 335 335
290 290 290 290 291 292 294 295 298 300 301 303 305 306 306 305 306 307 307 306 307 307 306 306 306 306 306 307 308 309 309 308 307 306 307 306 307 308 309 310 310 310 309 308 318 320 322 324 326 327 328 329 329 330 330 331 331 331 332 332 332 332 332 332 331 330 329 329 328 327 327 327 327 327 327 328 329 330 330 331 332 333 333 334 335
290 289 289 290 290 290 291 293 296 299 300 302 303 304 305 305 305 305 306 306 306 306 306 305 305 305 306 306 307 307 308 308 307 306 304 304 303 304 304 305 305 305 308 305 304 308 317 319 322 324 326 327 328 329 329 330 330 331 332 332 332 331 332 332 331 330 329 329 328 327 327 326 326 327 327 327 328 329 329 330 331 332 332 334 334
290 290 289 290 290 290 290 291 294 296 298 300 301 302 303 304 304 304 305 305 306 305 305 305 304 305 305 305 306 306 306 307 306 305 306 304 302 303 303 303 303 307 303 304 304 304 310 314 317 320 321 322 324 327 328 329 329 330 331 331 332 332 332 331 331 330 329 329 328 327 327 326 326 326 326 326 327 327 328 330 330 331 332 332 334
289 290 289 291 291 288 289 290 293 295 296 298 299 300 301 302 303 303 304 305 304 304 304 304 304 304 304 304 304 305 305 306 306 305 306 306 304 303 302 302 302 303 303 304 305 305 306 309 314 316 317 317 319 322 325 327 328 329 330 331 332 332 332 331 331 330 329 329 328 327 327 327 326 326 326 326 326 327 327 329 330 330 331 331 333
290 290 289 291 290 289 289 289 292 293 293 295 297 298 299 299 299 300 300 301 303 303 303 303 303 302 301 302 304 304 305 305 305 306 306 305 305 305 303 303 303 303 304 305 305 306 307 307 306 306 307 311 314 318 321 323 324 326 327 330 330 332 331 330 330 329 328 328 328 327 327 327 326 326 325 325 326 326 326 327 329 329 330 330 331
290 290 289 291 290 288 288 289 290 292 292 292 294 296 296 297 297 297 298 298 300 302 301 300 301 301 299 299 300 304 305 304 304 304 304 304 305 305 305 305 304 305 305 305 304 304 304 304 304 305 305 307 310 313 315 317 320 323 326 328 329 330 331 330 329 329 328 327 327 327 327 326 326 325 325 325 325 325 325 327 328 328 329 329 330
292 290 290 291 290 288 287 288 288 291 291 291 290 292 294 294 295 293 297 298 297 297 301 300 301 298 299 299 299 299 300 300 303 304 304 304 304 303 304 302 303 302 302 301 301 300 300 302 303 303 304 304 305 309 311 313 315 319 323 326 327 329 330 329 329 329 328 327 327 326 326 326 326 326 325 325 325 325 324 325 328 328 328 328 328
291 290 292 289 289 289 288 287 288 289 291 290 289 293 293 295 295 297 292 294 296 294 298 297 297 296 296 298 296 298 297 298 298 299 300 300 300 301 301 301 301 301 300 299 299 299 300 301 301 301 302 302 303 303 304 306 308 313 316 320 323 326 328 329 329 329 328 327 326 326 326 326 326 326 326 325 325 325 324 324 326 327 327 327 327
289 291 290 289 288 288 289 288 288 291 288 288 287 288 289 291 292 292 296 294 292 291 296 296 296 292 294 295 291 296 298 295 294 297 299 300 299 299 300 300 300 300 299 299 298 299 300 300 300 300 301 301 302 303 303 306 307 311 314 316 319 322 326 327 327 328 328 327 326 326 326 325 326 326 326 326 326 325 325 324 324 325 325 324 323
290 289 290 289 288 289 288 288 288 290 289 287 286 286 287 291 292 293 291 293 293 291 292 293 295 294 293 292 293 292 293 293 293 297 294 296 296 298 298 299 299 299 299 299 299 299 299 299 299 300 300 301 301 302 302 303 306 311 314 316 318 321 325 326 327 327 328 327 326 326 326 326 326 326 326 326 326 326 325 324 324 324 324 324 324
291 289 290 290 288 287 287 287 288 288 289 287 286 287 286 287 288 291 291 291 292 288 289 292 291 292 295 293 290 288 289 291 292 294 291 295 295 296 296 297 298 298 298 298 298 298 299 299 299 299 299 300 300 300 300 301 302 303 306 313 318 321 323 326 327 328 328 327 326 326 326 325 326 326 326 326 326 326 326 325 324 324 324 324 323
290 290 289 291 289 288 287 287 287 289 289 288 287 287 286 286 286 290 290 289 292 290 290 290 289 292 293 294 294 293 291 290 291 291 293 291 291 291 293 295 294 296 296 297 297 298 298 299 299 299 299 299 299 299 300 300 301 301 301 303 315 319 323 325 327 328 328 327 326 326 326 326 326 326 326 326 326 325 326 325 325 324 324 324 324
292 290 290 289 289 288 287 287 287 287 290 288 287 287 288 287 290 290 289 291 290 288 287 288 289 289 291 292 293 292 293 294 289 285 291 290 289 289 291 290 291 293 295 296 297 297 297 297 298 298 298 298 298 299 299 300 305 307 310 312 314 318 322 324 326 327 328 328 326 325 325 325 325 326 326 326 326 326 326 326 325 324 324 324 323
292 292 291 290 290 290 288 287 287 286 289 288 287 287 288 288 289 289 288 289 289 289 287 286 287 289 288 290 289 290 290 291 290 292 291 290 293 288 288 291 288 290 293 294 295 295 296 296 296 297 297 297 298 297 298 298 298 299 303 311 316 320 322 323 324 326 327 328 326 326 325 325 324 325 325 325 325 325 325 325 325 325 325 324 323
292 292 292 291 292 291 289 288 288 287 290 289 287 286 286 286 286 287 287 287 288 289 289 287 287 287 287 286 287 288 287 289 290 290 291 286 290 288 289 287 285 290 290 290 292 293 294 295 296 296 296 297 297 297 297 297 298 298 302 308 313 316 319 321 323 324 326 327 325 325 325 325 324 324 324 324 325 325 325 325 325 325 324 324 324
293 293 292 292 292 291 291 290 288 288 291 288 286 286 285 285 285 285 285 286 286 287 289 288 288 287 288 287 286 286 285 286 287 288 287 290 290 290 291 290 290 291 290 293 294 293 293 294 294 295 296 296 297 296 296 296 297 297 299 306 310 314 317 319 321 324 325 325 324 324 323 324 324 323 323 323 324 324 325 325 325 325 324 324 323
293 293 293 293 293 293 292 291 291 290 290 288 288 288 286 285 285 284 285 285 285 285 286 287 288 288 288 287 287 288 287 284 286 286 287 285 285 287 287 288 290 290 292 292 294 295 295 294 294 294 295 295 296 296 296 296 297 298 298 301 304 308 313 317 320 321 322 323 323 322 321 323 323 322 322 323 323 324 325 324 324 324 325 325 324
292 293 293 293 293 292 292 291 292 291 291 290 289 287 287 286 285 284 285 284 284 286 284 285 285 286 285 286 288 288 287 288 288 287 287 287 285 287 287 287 288 289 291 290 291 292 293 294 294 294 294 294 295 295 296 296 297 298 297 299 302 306 310 314 317 320 321 320 320 320 320 320 321 321 321 322 322 323 323 324 324 324 325 325 325
292 292 292 292 292 292 292 292 292 291 291 290 290 289 287 287 287 286 286 285 284 284 284 284 284 285 286 285 286 286 288 288 288 288 287 287 286 286 287 287 287 288 288 286 287 284 291 292 293 294 294 294 295 295 295 295 295 297 297 298 301 303 307 311 316 318 320 320 320 319 319 320 320 320 320 319 321 322 322 322 323 324 324 324 325
290 291 291 291 292 291 292 291 291 291 291 291 291 290 289 288 287 287 287 287 286 284 284 284 283 284 284 284 283 284 285 286 287 286 287 286 285 285 285 284 285 286 287 285 284 286 286 288 291 293 292 293 294 294 294 294 295 296 296 296 298 301 303 307 310 314 316 318 320 320 320 320 320 319 319 318 318 318 319 320 321 322 322 322 323
290 291 291 291 291 291 292 291 291 291 291 291 291 290 290 289 290 289 289 288 286 286 286 285 285 284 283 283 285 283 283 284 283 285 286 286 286 286 283 283 283 283 284 284 283 285 289 286 288 290 291 292 292 292 293 293 294 295 295 295 295 299 302 306 310 313 315 317 319 319 319 319 319 319 318 318 317 317 317 318 318 319 321 322 322
290 290 290 290 290 290 291 291 291 291 291 291 291 290 290 290 290 289 290 290 288 288 288 286 286 285 285 285 284 284 285 284 284 284 284 286 286 285 284 283 281 282 284 284 284 285 285 286 284 287 289 290 291 291 293 293 293 295 295 294 294 295 299 302 305 308 311 314 315 316 317 318 318 319 319 318 317 318 317 317 317 318 319 320 322
290 290 290 290 290 290 290 290 290 290 290 290 290 290 290 290 290 290 289 289 289 289 288 288 288 287 286 285 285 286 286 284 285 285 285 284 285 284 285 284 284 281 281 282 285 285 284 286 288 284 285 287 289 288 289 290 292 293 291 291 292 293 296 299 302 305 307 309 311 313 315 316 316 317 317 318 318 318 318 318 317 318 319 321 322
289 289 289 289 289 290 289 289 290 290 290 290 290 290 289 289 289 289 289 289 289 289 290 289 289 288 288 288 287 287 287 285 286 286 285 285 284 285 284 284 284 283 283 281 283 286 287 285 284 287 284 284 286 287 287 288 291 292 290 290 291 291 295 298 300 302 304 306 308 310 313 315 316 315 316 317 317 317 318 319 319 319 319 320 322
288 288 288 288 288 288 288 288 289 289 289 289 289 289 289 288 289 288 289 288 288 288 289 289 289 289 288 288 288 288 288 288 287 287 286 285 285 285 284 284 284 284 284 283 281 285 287 288 287 286 288 289 289 288 288 288 290 291 289 289 289 291 294 294 296 299 301 303 304 306 308 311 314 315 315 315 316 316 317 318 319 319 319 320 320
287 287 287 287 287 287 288 288 287 288 288 288 288 288 288 287 287 286 286 287 287 287 288 288 289 289 288 288 288 288 289 288 288 288 288 287 286 285 285 285 284 284 284 283 282 283 286 288 288 290 290 290 290 290 290 290 290 293 289 289 289 291 290 290 293 295 297 299 301 302 304 306 308 311 313 314 314 314 315 316 317 318 318 317 318
286 286 286 286 286 286 286 287 286 286 286 287 288 287 286 285 285 284 284 284 284 285 286 287 288 288 288 287 288 288 288 288 288 288 288 288 287 286 286 285 284 284 284 283 282 284 286 288 289 289 290 290 290 289 290 290 290 290 292 288 288 288 288 289 289 292 295 297 298 300 301 302 304 306 308 310 311 311 311 312 312 313 314 313 314
285 284 284 284 284 285 285 285 286 285 284 285 286 287 285 284 283 283 282 282 282 283 284 285 286 287 287 287 287 288 288 287 288 288 288 288 288 287 287 286 285 285 286 284 284 284 284 287 288 290 290 290 289 291 290 290 290 291 290 290 290 288 288 289 289 289 293 294 297 298 299 300 301 301 302 303 305 306 307 308 307 308 308 309 310
283 283 283 283 283 283 283 283 284 284 282 283 284 286 285 283 282 281 281 281 281 281 282 283 284 285 285 285 286 287 288 287 287 287 287 287 287 287 287 287 286 286 286 286 285 284 285 286 289 288 289 289 289 290 291 291 291 291 290 290 290 291 290 289 289 289 292 294 296 297 298 299 300 300 301 302 301 301 302 303 303 304 305 306 307
281 281 282 281 281 281 281 281 282 282 281 281 282 284 285 282 281 281 281 280 280 280 281 281 282 283 283 283 284 285 286 285 285 286 286 286 286 287 286 287 287 287 287 287 286 286 286 285 288 288 289 289 290 291 291 291 290 290 290 291 291 290 291 291 290 290 292 294 295 296 297 297 299 300 301 301 300 300 300 300 301 301 302 303 304
280 280 280 280 279 279 279 279 280 280 280 280 281 281 282 282 281 281 280 280 279 279 280 280 282 281 280 280 281 282 283 283 284 284 285 285 286 286 286 286 287 287 287 287 287 287 286 286 287 289 289 289 289 289 290 289 290 290 290 290 290 290 291 291 292 292 293 294 294 295 295 296 296 297 298 298 299 299 299 299 299 299 299 300 300
279 279 278 278 279 278 278 278 279 279 279 279 280 280 280 281 281 281 281 280 279 278 279 279 279 279 278 278 279 280 281 281 282 283 284 284 285 285 285 286 286 287 286 287 287 287 287 287 287 287 289 288 289 289 290 290 289 289 289 290 290 290 290 290 290 291 291 291 291 291 293 294 295 296 296 297 297 298 298 298 298 298 297 298 298
279 278 277 277 278 277 277 277 278 278 278 279 280 280 280 280 280 280 280 279 278 277 277 278 279 278 278 278 278 279 279 280 282 283 284 284 285 285 285 284 284 283 283 284 285 285 286 286 286 287 287 289 289 288 289 290 290 289 288 287 288 290 290 290 290 291 292 292 293 293 292 292 293 293 294 295 296 297 297 297 297 296 296 298 299
278 277 276 276 276 276 276 276 277 277 277 278 279 280 280 280 280 280 279 278 276 276 276 277 278 278 278 278 278 279 280 282 281 280 281 281 281 280 281 281 281 280 279 280 280 280 281 282 283 283 284 285 287 289 289 289 288 288 288 288 286 287 289 290 290 290 291 291 291 291 292 292 292 293 294 295 295 296 296 296 296 295 295 296 297
278 277 276 276 275 275 275 275 275 276 276 277 279 280 279 279 279 279 278 276 275 275 276 276 277 277 277 278 278 279 280 281 281 281 281 281 279 278 279 280 279 279 278 278 277 277 277 278 277 279 280 281 282 283 284 285 285 286 288 288 287 288 288 288 289 291 291 290 291 291 291 291 291 291 291 290 291 292 293 294 294 294 294 296 297
276 276 275 275 275 274 274 274 275 275 275 277 280 281 281 280 279 279 277 276 275 275 276 276 276 277 277 276 277 279 279 279 279 280 280 280 280 279 278 277 277 276 276 276 276 276 277 276 277 277 277 277 279 281 282 283 285 287 286 286 286 287 287 286 288 289 291 290 290 289 290 292 291 290 291 290 291 291 291 291 291 292 293 295 296
275 275 274 274 274 274 273 273 273 274 274 277 280 281 281 282 280 278 276 275 275 275 275 275 275 275 275 275 275 276 277 278 277 278 278 278 278 279 280 280 280 278 276 276 276 277 277 277 277 277 277 277 279 281 282 284 285 285 285 285 285 286 285 284 283 286 288 289 289 288 288 291 291 289 290 291 291 291 291 291 293 293 294 295 295
274 274 273 273 273 273 273 273 273 273 273 277 280 280 280 281 281 279 276 275 275 275 275 274 274 273 273 273 274 275 275 276 275 274 275 277 279 280 280 280 281 281 281 279 277 276 275 275 274 275 276 277 279 281 282 282 280 280 280 280 280 280 279 279 280 280 285 289 287 286 285 289 290 289 289 290 291 292 292 293 294 295 295 296 296
273 272 272 272 272 272 272 271 272 272 272 277 278 279 280 281 282 279 276 275 275 274 273 273 272 272 272 273 273 274 274 275 275 273 273 275 278 278 278 277 277 278 279 280 280 278 277 275 274 274 275 276 276 277 279 279 280 278 278 279 279 279 279 278 278 279 281 284 283 282 281 284 287 286 287 289 291 291 292 293 294 295 296 296 296
272 271 271 271 271 271 271 271 271 271 271 275 278 278 279 280 280 278 274 273 273 273 272 272 272 272 272 272 271 272 272 272 272 273 273 273 273 274 274 274 274 275 277 278 278 278 278 276 276 275 276 278 276 277 278 279 277 276 277 277 278 278 278 278 279 280 281 282 280 280 280 281 284 285 285 288 290 290 291 293 295 295 296 296 296
271 270 270 270 270 271 271 271 271 270 271 275 277 278 279 278 278 276 273 272 272 271 271 271 271 271 271 271 271 270 270 270 271 272 273 274 274 273 273 273 273 273 274 275 275 275 276 276 275 275 276 277 277 277 278 279 279 279 280 279 279 279 279 280 280 280 281 282 282 281 278 281 283 283 285 287 288 289 291 293 295 295 296 296 296
271 271 270 270 270 270 270 270 270 269 270 274 276 277 277 277 277 273 271 271 270 270 270 271 270 270 270 270 269 269 268 268 271 276 276 274 272 270 270 270 271 271 271 274 276 277 275 274 274 274 274 274 277 275 276 276 276 276 277 277 278 277 276 276 276 278 279 282 283 281 280 281 284 283 284 287 288 287 289 290 293 294 295 295 296
269 269 269 269 270 270 270 269 269 269 269 272 275 275 276 277 274 271 270 270 270 269 269 269 269 269 269 269 268 268 268 268 273 276 276 274 270 269 269 268 269 269 269 271 274 273 273 274 274 274 274 274 275 275 275 276 275 275 275 274 273 274 272 272 274 276 276 279 281 282 281 280 282 282 281 283 284 284 286 287 289 292 294 295 295
268 268 268 268 269 269 269 268 268 268 269 271 273 274 275 274 274 270 270 269 268 267 267 268 268 267 268 270 269 268 268 270 274 274 275 272 268 267 266 266 265 265 266 268 267 266 270 270 269 269 270 270 271 272 272 273 274 275 269 265 266 267 264 265 265 267 269 273 277 281 278 277 280 281 280 281 284 284 286 287 288 289 292 293 294
267 268 268 268 268 268 268 268 269 268 268 268 272 273 273 273 273 270 269 267 266 266 266 266 266 267 266 267 269 269 270 271 273 273 273 270 267 266 265 264 263 264 265 265 261 261 260 260 261 262 263 265 265 265 267 271 273 270 265 264 264 264 262 263 264 265 265 267 274 279 275 277 281 282 283 281 280 283 287 287 287 288 289 289 290
Wind_Speed
6 6 5 5 6 7 7 7 7 7 7 7 6 6 6 6 5 5 4 4 2 2 2 3 3 3 3 3 3 5 4 3 4 5 4 5 6 7 10 10 8 10 11 9 8 8 6 6 8 10 11 9 10 10 9 8 7 7 7 7 7 7 6 6 4 3 3 4 4 5 5 6 7 8 8 10 12 14 16 17 17 17 18 19 19
6 6 6 6 6 6 7 7 7 7 7 6 7 5 5 5 6 5 5 4 3 4 3 3 3 4 0 4 4 4 3 4 4 4 5 5 5 5 8 9 7 6 8 7 7 6 6 6 8 8 9 10 10 9 8 6 6 6 6 7 6 6 7 5 4 1 2 2 3 5 5 6 7 7 8 9 10 10 12 14 17 18 19 18 19
5 5 6 6 6 6 6 6 6 7 7 7 6 6 5 5 5 5 5 5 5 4 3 2 2 3 4 5 4 4 4 3 5 3 5 5 4 4 5 8 7 6 6 4 5 5 4 5 7 7 6 8 9 8 7 6 6 7 8 8 8 8 7 7 7 4 1 2 2 4 5 6 7 7 8 8 9 10 11 12 14 16 18 19 18
4 5 4 6 6 6 6 6 7 6 7 7 7 6 5 5 5 5 5 4 5 5 4 4 5 4 4 4 4 4 3 3 5 4 4 4 4 3 4 4 6 6 6 4 4 5 4 4 2 3 10 10 7 6 6 6 8 8 9 10 9 9 8 8 8 5 1 1 2 4 6 7 8 8 9 10 11 12 13 13 14 15 17 19 20
5 4 4 5 6 6 6 6 6 6 6 8 8 7 5 3 4 3 5 5 6 7 5 6 7 6 5 5 3 4 3 3 4 4 3 3 4 3 3 3 3 6 7 6 5 3 5 4 2 1 2 3 6 7 7 8 9 10 10 11 11 11 11 10 9 8 5 3 2 4 6 7 8 9 10 11 11 12 13 14 15 16 17 18 19
2 5 4 5 5 6 6 7 6 6 6 6 7 6 7 8 6 4 6 7 7 6 5 6 5 5 6 5 5 5 3 3 2 3 5 3 3 3 3 3 3 3 3 4 3 3 4 3 4 5 5 6 7 8 9 9 10 11 12 13 13 12 12 12 11 11 9 6 6 6 6 7 9 10 10 11 11 12 13 14 15 17 18 18 20
2 3 5 4 5 6 7 7 7 6 6 5 5 5 6 7 7 7 6 6 5 5 6 5 5 5 5 5 5 4 4 4 4 4 3 2 1 1 1 2 3 2 2 1 2 1 1 2 4 5 7 7 8 9 10 10 11 11 12 13 14 13 13 13 14 12 11 9 8 8 9 8 8 10 11 12 12 13 13 14 15 16 17 18 18
3 2 4 4 5 5 5 6 8 6 6 5 5 6 5 5 7 6 6 6 4 5 5 6 6 5 4 3 3 4 3 3 4 3 3 2 1 1 2 2 3 2 2 1 0 1 2 3 4 5 6 8 9 9 9 10 10 11 12 14 15 15 15 15 13 13 12 13 11 8 10 10 8 10 11 12 13 14 15 15 15 14 16 17 18
2 2 3 4 5 5 5 6 6 6 6 6 6 5 4 4 5 6 5 5 6 6 5 5 4 4 4 4 3 3 3 2 2 1 2 1 1 0 0 0 0 2 2 2 2 4 4 4 4 5 5 6 7 9 9 9 10 11 12 13 15 15 15 15 14 14 14 13 12 10 11 9 8 10 11 12 13 14 15 16 16 16 15 15 17
2 1 3 3 3 4 5 5 6 6 6 6 6 5 4 5 5 5 5 5 5 6 5 4 2 3 3 3 4 3 2 1 1 0 0 1 1 1 1 1 1 2 2 4 4 3 3 4 5 6 6 6 7 9 10 10 10 11 12 13 14 15 16 16 16 16 15 13 12 10 8 9 9 9 11 11 12 13 14 16 17 17 16 14 15
2 1 2 3 4 5 5 5 5 6 6 7 7 7 7 5 5 5 4 3 3 3 3 3 3 2 1 0 1 2 2 1 0 1 2 1 1 1 2 2 1 2 3 3 3 3 3 3 3 4 4 6 7 9 10 10 10 11 11 12 14 15 16 17 16 15 14 14 12 11 11 11 10 12 12 13 13 13 14 16 17 17 16 16 15
3 2 1 1 2 3 4 4 4 5 7 8 8 7 7 8 6 4 5 4 4 4 3 4 2 2 3 3 0 2 3 1 2 2 2 2 3 2 3 3 3 4 3 3 3 3 2 3 3 4 3 4 6 8 9 10 11 11 12 13 13 15 17 17 17 16 16 15 13 13 12 12 12 13 14 13 14 14 14 15 15 16 15 16 16
3 3 4 3 1 1 3 3 3 4 4 5 4 5 5 4 5 2 5 6 4 6 5 2 5 4 3 3 3 1 1 1 2 2 3 3 3 3 3 3 4 3 4 3 2 3 3 3 3 4 4 4 5 6 8 10 11 13 13 14 14 15 17 18 18 18 16 15 13 13 13 12 12 14 15 15 14 15 15 14 15 14 13 13 15
3 3 3 3 4 3 2 2 3 3 3 2 4 4 6 7 6 7 3 4 3 4 7 4 5 3 3 7 5 4 1 1 2 3 3 4 4 4 3 4 5 3 4 4 3 3 4 4 3 4 4 5 5 5 5 6 8 12 13 13 15 16 17 18 19 19 17 17 16 14 14 14 15 16 16 16 15 15 14 14 14 13 10 11 13
2 2 3 3 3 3 4 1 1 1 4 5 4 5 5 5 5 4 8 3 1 2 6 6 2 1 1 1 3 6 4 3 2 3 5 5 4 4 4 4 4 3 2 3 5 4 4 4 4 5 5 5 5 5 5 6 8 11 13 14 15 16 19 19 20 20 19 17 16 16 17 17 17 17 17 17 17 16 15 13 12 12 10 11 12
3 2 2 2 2 3 3 4 2 0 1 3 3 4 4 5 6 6 3 5 6 4 3 4 4 5 5 2 3 1 5 3 5 6 1 2 2 5 3 5 4 5 4 5 5 4 4 4 5 5 6 5 5 5 6 6 9 12 14 14 15 16 18 20 21 22 21 20 19 20 19 19 18 19 19 19 17 17 17 15 13 12 13 13 13
4 3 1 2 2 2 3 3 4 2 1 3 3 2 2 1 1 3 4 2 7 3 2 4 4 3 1 2 4 2 1 3 7 7 2 2 1 1 2 3 5 5 4 6 4 5 5 5 6 5 6 6 6 6 6 6 6 6 9 13 16 17 18 19 23 24 23 22 22 21 22 22 21 22 21 20 19 18 18 16 14 14 14 13 12
4 4 2 2 2 2 2 2 3 4 3 2 3 3 1 1 1 0 1 1 0 3 4 3 3 3 1 1 1 1 4 4 2 6 6 3 3 2 3 4 3 4 4 5 6 7 5 7 6 7 6 6 6 6 7 7 6 7 6 8 15 17 19 21 22 24 25 25 23 23 23 22 21 21 22 20 19 19 19 18 17 15 15 14 13
6 4 4 3 2 1 1 2 2 3 3 2 3 4 4 2 0 0 1 1 1 2 4 5 6 2 3 1 0 0 1 1 3 3 9 6 3 3 3 2 2 3 4 5 5 5 6 5 7 7 7 6 6 7 7 8 9 10 14 15 17 18 20 21 23 24 24 25 25 24 24 23 23 22 21 22 21 21 20 19 19 18 16 16 15
6 6 5 5 4 3 1 1 1 2 1 3 3 3 4 4 2 1 1 2 1 1 3 1 2 4 3 4 3 2 1 1 2 3 4 8 12 2 2 6 4 5 5 6 6 6 6 6 7 7 7 7 7 7 8 8 8 8 8 15 18 20 22 23 23 23 24 26 26 24 24 23 23 23 22 22 23 21 22 21 20 20 19 17 17
6 7 6 6 5 5 4 2 1 1 1 2 3 3 4 4 5 5 5 3 1 1 1 3 1 3 4 2 3 2 2 1 1 1 3 3 9 6 7 3 3 6 6 5 5 5 7 7 7 7 7 8 8 8 8 8 8 7 9 15 18 20 21 22 22 23 23 25 25 24 24 24 24 23 22 22 22 22 22 22 21 21 21 19 18
8 7 7 8 7 6 5 5 4 2 1 1 1 1 2 3 4 4 3 4 3 2 3 5 3 2 2 1 2 3 3 2 1 1 2 3 9 10 9 11 13 8 1 7 7 6 6 7 8 8 8 8 8 7 7 7 7 7 10 17 19 20 21 21 22 22 22 24 24 25 24 24 24 24 24 22 22 22 23 22 22 21 21 20 20
8 8 8 9 8 7 7 6 5 4 3 3 2 1 2 2 3 3 3 4 4 3 3 4 3 4 5 3 5 4 4 3 6 4 3 4 6 8 8 5 9 16 7 2 7 9 9 8 8 8 8 9 8 7 6 7 8 10 15 15 17 19 20 20 21 22 22 23 24 24 25 25 25 26 25 23 22 23 22 23 22 22 21 21 21
8 9 11 11 9 8 7 7 8 8 8 5 4 3 1 1 1 1 2 2 2 3 3 4 4 4 4 4 5 5 4 5 6 4 4 6 5 10 9 6 8 8 9 7 7 10 10 11 10 9 10 8 7 6 7 7 9 14 12 13 15 19 20 21 21 22 23 23 23 23 24 26 27 26 25 23 23 24 24 23 22 22 22 22 21
11 11 11 12 9 9 10 9 9 8 7 7 6 4 4 3 1 1 1 1 2 3 3 4 4 4 6 3 4 3 6 5 4 6 5 5 6 8 9 6 11 13 8 4 7 3 8 8 9 9 9 8 7 7 7 6 7 10 11 9 15 16 19 21 21 22 23 23 24 24 25 25 25 25 24 25 25 24 25 25 23 23 22 22 22
9 10 9 9 9 7 7 8 7 7 7 7 7 6 5 5 4 5 4 2 0 1 2 3 3 4 3 5 4 5 6 5 5 4 6 5 7 7 10 5 6 12 8 5 4 5 3 5 7 8 7 7 8 6 5 6 7 12 13 9 10 14 16 18 20 22 23 24 25 26 26 25 24 24 23 22 22 23 23 24 24 23 23 22 22
9 8 9 10 10 9 9 10 9 9 9 9 8 8 7 6 7 6 5 4 4 3 2 1 2 2 2 4 5 5 5 6 5 6 5 6 6 7 5 12 11 6 9 4 5 7 11 4 5 4 7 7 5 5 7 6 8 12 12 7 8 12 15 19 20 22 23 24 25 27 27 26 25 25 24 23 23 23 23 23 24 24 24 24 24
8 9 10 9 10 10 10 11 10 10 10 10 10 9 9 9 9 9 10 7 7 7 6 4 4 4 3 2 2 3 5 5 5 6 6 6 6 5 5 5 7 16 12 11 3 5 6 5 2 4 5 4 6 5 6 7 7 12 11 7 8 9 13 18 20 21 23 24 25 25 26 27 26 26 25 24 24 24 24 24 24 25 25 25 26
8 8 9 10 10 10 10 11 11 11 11 11 11 10 9 9 9 10 11 9 8 9 8 8 7 5 4 4 4 4 3 3 3 5 5 5 6 6 6 6 6 7 8 13 13 7 2 0 6 3 2 4 5 4 4 5 8 9 7 7 8 8 12 17 19 20 22 23 23 24 25 25 26 27 27 26 25 25 25 25 26 26 26 26 27
9 8 9 11 10 11 10 11 11 11 12 11 11 11 10 9 9 9 8 8 8 8 9 8 9 8 7 7 6 6 4 3 4 4 3 4 5 5 6 6 6 7 7 9 14 7 13 1 3 3 1 3 3 5 5 7 9 11 7 8 8 9 12 16 18 19 20 21 22 23 24 25 25 26 26 27 26 27 27 27 27 27 27 28 28
10 11 11 11 11 11 11 11 11 12 12 12 11 11 11 10 10 10 11 10 9 8 8 8 8 8 9 10 8 8 7 7 6 5 3 3 5 4 5 5 5 7 8 8 12 2 4 15 6 3 6 8 6 6 5 6 8 10 8 8 8 12 16 13 16 16 18 20 20 21 22 23 25 26 26 27 27 28 28 28 28 28 28 29 29
10 10 11 11 11 11 10 11 12 12 12 12 11 11 11 11 11 11 11 12 11 10 9 9 8 9 9 10 9 8 9 8 8 7 7 6 4 6 5 5 5 6 6 7 10 14 5 12 14 15 9 11 9 10 9 6 6 11 7 7 9 12 9 9 13 16 16 18 19 20 20 21 23 25 26 27 28 28 29 30 29 29 29 29 27
9 10 11 11 11 11 11 11 11 12 12 12 10 10 11 12 11 11 12 12 12 11 10 11 10 9 10 9 9 9 7 8 8 8 8 8 7 6 6 6 6 5 5 6 10 14 7 5 10 11 14 13 13 5 12 9 9 7 8 6 7 8 8 8 9 14 15 15 18 19 20 21 22 23 25 26 27 29 29 30 30 28 26 24 24
9 10 11 10 10 11 11 11 11 11 12 11 10 9 11 12 11 10 11 12 12 11 10 12 12 10 9 10 10 10 8 8 8 9 8 8 8 8 7 7 7 8 5 6 9 10 14 7 10 9 11 10 15 9 10 14 12 10 11 10 8 7 9 9 9 9 15 17 16 18 20 20 21 21 22 23 25 25 25 25 25 25 25 23 22
9 10 10 10 10 11 11 11 10 10 12 11 11 10 10 12 11 11 10 11 12 12 12 11 11 10 11 10 11 11 9 10 8 8 8 8 8 8 8 7 7 8 7 6 8 12 13 12 7 11 9 11 11 15 13 12 12 10 13 12 10 9 7 8 9 9 13 17 21 20 18 20 21 21 21 21 23 25 25 25 26 26 25 25 25
10 9 9 10 10 11 10 11 10 10 11 11 11 11 11 11 11 11 11 11 10 10 11 11 11 11 11 11 12 11 10 10 10 9 8 9 9 8 8 8 7 8 8 7 7 9 11 13 9 9 10 10 12 11 11 12 13 12 10 11 9 10 10 9 10 10 11 17 19 20 20 21 21 20 20 23 24 25 25 26 26 26 26 26 26
9 9 9 9 10 11 11 10 10 10 10 10 10 11 11 10 10 10 10 10 10 10 10 10 10 11 11 11 12 11 11 11 10 10 10 11 10 9 9 9 8 8 8 8 9 8 11 12 12 8 9 9 9 10 10 13 13 11 11 11 11 11 11 10 9 9 14 18 19 20 20 21 22 23 24 25 25 24 24 25 25 26 26 26 26
9 9 10 10 10 10 10 9 9 9 9 10 10 10 11 10 10 9 8 9 10 11 11 10 10 10 11 11 11 11 11 11 11 11 11 11 10 10 11 10 10 9 10 9 9 10 11 12 11 12 7 10 10 7 9 10 12 14 13 12 12 10 10 11 8 7 6 7 7 9 12 15 17 21 23 23 25 25 25 25 25 25 25 25 26
9 9 9 9 9 9 9 8 9 9 9 9 9 10 10 10 10 9 9 9 10 9 10 10 9 9 10 10 10 10 11 11 11 12 13 12 11 12 12 13 13 13 13 12 12 13 12 13 11 8 10 7 8 11 9 8 12 11 13 15 14 9 7 10 12 8 7 10 11 16 16 16 18 16 19 22 23 24 24 24 24 25 25 26 26
9 9 9 9 7 7 7 7 7 7 8 7 8 9 9 10 10 9 9 10 10 10 10 9 9 9 9 9 10 11 11 11 13 14 15 14 13 13 12 13 13 13 13 13 12 12 12 12 11 12 11 11 10 8 8 9 10 10 7 9 15 16 13 11 11 11 10 10 11 9 10 13 14 17 20 21 23 24 24 24 25 25 26 26 26
6 7 7 8 8 8 8 7 7 7 7 8 8 11 11 11 10 9 9 10 10 10 10 10 9 9 9 9 10 12 15 19 22 19 18 17 13 13 13 12 13 12 10 10 10 10 10 11 11 11 11 12 10 11 11 10 11 12 10 9 13 12 11 12 13 8 8 11 10 11 9 8 11 11 9 10 11 14 17 22 20 24 25 25 26
7 7 8 8 8 9 10 9 8 7 8 6 15 22 19 13 10 8 8 9 10 9 9 9 9 9 10 11 12 20 19 19 19 20 21 22 22 16 15 14 13 12 12 12 11 9 10 11 11 10 13 11 11 9 12 10 10 10 12 11 12 13 13 10 12 8 7 9 12 12 10 6 8 12 10 11 11 10 10 11 11 13 17 23 25
8 8 8 9 9 9 9 9 9 8 8 9 22 21 21 22 14 9 8 8 8 8 8 10 10 11 11 12 11 14 15 15 15 21 22 23 22 22 23 22 19 15 13 14 11 11 11 12 10 10 10 12 11 9 10 13 10 11 12 12 12 12 12 14 15 9 4 8 9 12 12 6 7 12 13 11 11 10 10 12 15 19 22 23 24
8 7 8 9 8 8 8 9 9 9 8 16 22 22 22 23 22 12 6 7 7 7 8 10 10 11 12 11 10 9 10 15 16 15 18 21 23 24 23 22 21 21 19 14 15 13 11 12 13 12 12 12 13 12 11 12 14 15 13 13 13 13 15 16 15 16 7 13 13 14 17 13 6 12 16 14 11 10 12 16 19 21 23 24 24
7 9 9 9 9 9 9 9 9 9 7 17 21 22 23 24 24 16 8 9 9 9 9 10 10 10 9 10 10 10 10 19 15 13 13 15 21 24 24 24 22 22 22 23 21 16 14 12 12 13 11 13 16 14 13 15 15 16 15 12 11 13 13 16 16 14 14 9 12 14 18 19 9 9 15 16 13 11 14 17 21 22 24 24 24
8 8 9 10 9 10 10 10 9 9 8 17 21 22 22 23 23 17 9 10 8 9 10 10 10 10 10 11 11 10 10 11 11 13 16 17 17 17 16 13 13 16 18 20 21 22 18 13 12 15 14 12 14 14 15 17 18 19 18 18 16 16 16 17 17 19 16 11 13 12 17 20 13 8 14 17 11 9 12 15 20 22 24 24 25
9 9 10 10 9 9 9 9 8 9 9 19 19 21 22 24 23 15 9 9 9 10 9 8 10 10 11 10 11 12 13 13 13 19 20 19 18 16 16 16 15 15 14 13 12 10 12 12 14 15 17 16 14 16 15 14 14 14 14 17 16 16 17 16 18 15 16 9 10 9 18 18 16 12 12 14 12 11 10 16 21 24 25 25 25
7 6 7 7 7 8 8 8 8 9 9 17 19 21 24 23 22 11 10 9 9 8 8 10 10 9 10 11 11 11 12 12 18 27 25 21 18 17 17 16 14 13 12 15 21 21 19 17 16 18 18 21 27 24 24 23 20 19 19 18 14 14 14 16 14 12 13 7 8 10 13 16 15 13 11 12 13 13 12 12 17 23 24 24 25
7 7 7 7 6 7 8 8 8 8 8 13 19 22 21 24 19 11 11 9 9 10 11 11 10 11 10 12 13 11 12 14 23 29 29 27 16 18 17 17 15 13 12 13 17 21 23 25 27 30 33 34 34 34 33 34 25 23 18 15 14 16 16 16 15 14 14 11 9 10 12 16 14 16 14 13 15 17 15 15 13 18 22 24 26
7 7 7 6 6 7 8 8 9 8 7 13 21 19 21 25 21 12 10 10 11 11 11 11 10 10 12 18 16 12 14 16 28 29 29 23 17 18 18 17 17 16 15 14 12 14 22 23 23 24 24 25 28 30 30 29 29 23 11 11 13 12 11 13 17 17 18 16 14 11 14 14 16 17 15 13 15 13 15 15 15 13 19 23 28
6 6 6 6 6 6 7 8 10 10 8 11 16 19 24 23 18 12 12 10 11 12 11 11 10 9 9 11 17 17 18 23 30 27 28 24 18 17 17 16 16 16 16 16 14 16 15 14 13 15 15 18 17 15 17 26 24 18 15 15 15 14 13 13 14 16 17 13 12 20 19 14 15 13 12 13 11 10 10 12 13 12 11 13 14
Wind_Direction
333 334 328 340 340 343 344 343 339 341 342 343 352 350 358 11 3 21 19 34 22 353 10 351 307 316 305 295 98 101 107 115 115 99 80 82 93 89 86 94 98 100 97 96 98 104 117 177 183 189 189 183 194 197 209 216 224 231 243 255 263 262 260 266 286 316 354 359 345 330 322 317 314 310 304 295 288 281 274 270 265 258 255 249 246
328 329 337 339 338 342 344 343 341 342 345 342 349 345 359 10 16 9 19 22 23 15 8 341 327 279 253 80 70 88 86 93 76 84 92 89 94 105 106 92 89 105 112 107 115 128 158 189 187 204 210 199 206 206 216 226 239 253 260 255 255 255 253 258 248 202 0 336 339 332 331 330 326 321 314 310 304 298 290 277 267 264 261 257 253
335 333 333 335 338 343 343 335 348 347 341 343 347 343 352 21 19 12 10 14 32 20 13 357 348 51 77 79 63 80 85 85 94 96 93 96 104 112 109 110 114 101 101 137 142 141 168 197 204 205 234 226 218 222 221 236 253 252 250 242 233 239 243 239 241 232 329 334 335 337 335 330 326 321 317 313 308 304 298 292 284 271 259 253 250
339 335 341 337 336 336 336 347 347 343 345 343 344 347 345 11 25 24 9 1 26 38 22 29 34 27 44 77 92 75 82 87 91 83 95 99 102 98 99 99 94 103 122 143 150 152 165 170 181 207 221 222 235 240 255 258 255 253 251 250 241 244 243 244 246 237 206 282 323 333 328 324 320 320 322 322 319 313 306 299 291 283 271 257 248
331 334 337 343 333 333 341 347 343 340 347 344 342 351 350 8 44 47 31 31 31 27 24 40 38 20 24 19 27 89 84 74 87 89 84 98 91 87 90 90 84 71 75 72 69 109 162 164 181 215 286 273 256 251 252 255 257 260 257 251 249 247 246 247 243 230 196 226 273 304 314 311 314 316 316 316 315 312 307 303 297 288 279 268 254
348 334 344 349 347 339 337 340 343 337 343 357 356 358 1 1 3 39 51 42 33 25 17 42 39 28 25 10 22 17 10 77 77 116 128 118 125 126 128 123 110 109 98 97 99 84 104 153 180 205 220 229 241 250 251 254 258 258 257 256 251 249 247 247 246 243 231 226 252 277 295 306 308 308 307 306 307 308 307 305 303 297 289 278 265
335 344 336 354 353 345 343 335 331 334 344 357 1 359 10 9 353 7 34 53 43 27 29 34 33 46 41 22 20 16 19 15 19 16 20 35 47 64 57 103 115 114 106 97 92 121 125 195 214 224 236 238 242 245 247 254 261 263 260 258 257 254 250 254 253 251 251 245 246 265 275 281 296 304 307 308 307 309 310 310 309 305 298 288 273
328 2 346 349 355 345 333 332 337 336 340 352 9 24 6 12 8 359 16 28 50 47 36 29 26 24 26 63 49 38 26 17 22 16 358 17 23 34 24 20 16 17 14 23 17 310 274 245 239 248 250 251 252 250 253 259 265 268 270 266 262 258 254 252 254 257 254 250 257 260 267 275 287 300 307 309 310 310 313 313 312 309 304 295 283
322 344 353 343 348 344 338 339 337 344 341 349 10 8 18 13 19 17 5 15 31 41 38 31 14 16 17 5 54 92 67 27 29 24 349 36 22 24 80 80 55 6 332 293 268 245 243 251 257 259 274 290 286 268 259 258 258 263 265 264 263 260 257 255 256 257 254 252 252 262 270 271 284 296 302 308 310 312 313 316 316 315 311 303 292
314 331 341 325 336 338 336 352 347 351 349 356 357 355 11 26 25 9 18 25 28 27 21 17 8 355 17 22 354 29 72 125 347 298 144 349 343 349 355 348 345 294 268 261 260 274 279 290 284 269 260 253 252 260 265 266 266 268 267 263 260 262 262 258 253 252 252 257 264 260 250 262 276 288 296 303 310 313 316 320 322 321 319 312 299
303 329 349 342 344 347 350 353 356 352 358 357 1 359 3 15 34 7 3 35 61 23 9 327 323 308 332 51 77 6 338 313 289 46 342 26 4 342 354 290 234 245 256 269 288 292 300 306 304 310 309 311 300 284 272 267 271 273 275 272 268 268 266 261 258 256 253 254 255 263 253 259 274 286 295 302 308 315 319 322 323 322 322 318 309
304 296 305 320 351 346 342 352 4 9 6 3 356 357 355 354 1 9 11 3 19 15 359 355 301 336 321 322 279 180 230 238 300 320 332 284 243 230 242 253 243 245 239 246 264 282 297 288 287 287 296 294 288 284 281 280 274 269 264 262 265 266 266 267 259 254 255 259 260 255 253 265 272 279 285 292 296 302 310 316 318 321 321 320 317
303 323 314 327 334 318 7 352 0 19 14 354 334 336 345 349 339 9 21 13 3 354 351 354 27 353 334 304 315 206 204 323 289 280 262 263 248 257 242 252 262 268 269 278 274 281 275 277 280 282 276 275 282 283 280 277 277 273 269 265 264 266 265 263 260 257 255 255 261 267 274 267 262 271 280 283 288 294 299 308 315 317 323 323 324
294 298 299 315 323 338 7 4 2 359 359 338 347 354 360 8 3 358 43 43 6 2 343 13 25 41 338 329 334 333 194 174 274 276 264 283 285 269 250 243 261 267 293 295 287 278 267 259 259 261 261 259 257 255 263 266 270 267 269 269 264 263 263 263 263 258 255 257 258 261 264 268 270 273 279 280 281 284 288 297 306 313 323 328 331
291 275 274 287 284 318 319 357 22 4 13 359 1 357 358 0 17 26 342 7 348 356 17 44 18 270 229 19 349 3 329 5 329 280 249 239 232 264 282 290 284 303 310 299 287 284 280 279 268 260 258 255 251 251 253 253 251 254 259 259 259 261 259 258 259 263 261 258 256 256 260 261 265 271 272 274 276 275 279 285 290 299 309 319 325
327 291 276 267 262 275 299 325 345 120 55 3 352 349 351 354 3 5 22 351 1 323 32 12 59 19 358 27 283 70 326 340 336 293 329 238 202 229 243 262 283 299 312 286 284 285 280 279 266 261 263 259 260 260 258 256 260 265 264 262 262 261 261 257 257 256 258 259 258 257 257 260 263 267 270 272 271 274 274 272 272 272 286 299 311
337 336 296 282 260 258 271 290 318 316 349 338 334 307 293 280 18 18 39 53 340 337 322 29 31 48 121 350 344 9 257 277 335 291 338 3 237 270 265 256 264 261 256 260 250 253 257 263 258 259 260 260 261 259 261 262 267 265 269 269 267 264 261 260 257 255 255 256 257 259 260 261 261 263 264 266 269 269 269 265 260 260 267 278 292
343 345 346 325 301 266 258 276 293 303 318 319 311 327 306 4 273 134 16 339 159 4 329 329 34 14 87 134 195 263 320 290 357 303 325 282 301 277 238 236 248 244 253 259 260 264 251 257 253 255 250 250 250 254 251 255 252 252 250 258 262 263 263 262 259 258 257 254 253 254 255 258 262 264 269 271 270 268 263 260 257 253 256 257 269
349 356 355 349 345 315 265 257 268 278 300 321 311 297 303 329 150 108 261 144 90 343 305 296 340 28 35 62 40 131 169 335 292 319 324 318 338 1 310 294 280 286 269 258 263 265 262 245 255 253 255 249 249 249 250 251 251 248 249 252 255 255 258 260 261 261 262 264 261 259 260 261 263 265 265 267 268 266 263 257 255 253 251 253 252
355 360 2 0 353 357 352 279 248 259 267 262 260 285 312 306 304 237 176 163 162 252 293 273 35 299 358 350 351 356 15 243 193 221 250 293 305 302 303 303 326 278 252 264 258 255 268 260 256 254 255 251 242 240 243 245 243 248 252 253 254 258 260 261 260 262 262 264 265 265 265 263 262 263 267 270 270 268 265 260 253 252 250 246 248
8 2 2 6 4 355 355 357 345 278 248 252 261 279 275 289 311 322 310 302 224 201 321 274 184 264 346 340 352 343 333 302 287 148 227 287 285 302 310 311 277 252 251 244 259 257 254 261 255 254 253 253 242 240 242 244 247 246 250 252 254 255 256 257 259 260 261 262 264 266 265 264 265 265 268 269 269 268 266 262 256 250 248 246 244
3 4 6 7 3 2 3 1 357 343 299 260 251 240 264 267 267 275 283 286 307 311 270 282 291 258 182 189 342 327 350 0 19 357 319 213 265 300 313 317 313 287 252 296 287 269 264 265 270 264 261 260 253 245 242 244 246 247 247 248 249 251 252 254 256 256 258 262 264 265 266 267 266 265 265 264 265 266 264 258 255 251 250 247 245
3 7 13 7 5 6 6 1 0 5 6 5 341 288 250 226 253 269 281 268 283 295 296 282 289 297 298 285 266 237 230 249 276 280 261 293 303 282 288 267 274 297 297 282 293 291 292 280 272 270 264 260 262 259 254 252 252 248 250 252 254 256 257 258 258 259 260 262 263 263 264 264 264 263 262 260 261 261 263 260 257 252 250 248 244
15 12 12 7 8 6 7 9 11 8 10 359 0 0 336 276 214 204 253 268 299 295 286 294 293 288 290 275 262 269 276 257 260 254 259 264 260 286 290 289 274 234 288 302 268 270 264 266 266 265 261 257 257 243 251 250 253 254 256 258 257 259 261 262 262 260 261 263 263 263 263 263 262 261 261 258 257 258 259 262 260 255 251 248 244
12 13 6 4 6 11 11 12 8 7 1 6 4 9 16 16 12 326 266 239 223 214 235 253 260 256 263 284 276 284 264 269 279 273 279 278 282 286 280 277 282 294 291 289 292 247 241 252 255 253 258 263 262 255 248 252 257 258 251 256 254 258 262 265 269 271 271 268 265 262 260 259 260 261 261 260 260 259 260 259 261 261 256 251 247
10 15 358 360 12 12 14 17 16 11 13 11 13 9 14 14 13 13 8 4 345 215 227 240 234 248 259 272 271 259 264 276 271 279 268 279 275 265 287 272 231 274 273 270 274 293 307 255 251 252 261 258 259 263 266 255 260 258 254 255 269 267 266 267 268 268 268 267 266 263 261 259 258 258 257 257 256 256 257 258 258 260 261 258 250
17 7 9 12 11 15 17 21 17 17 16 19 13 14 13 15 20 12 18 22 4 355 340 322 292 272 230 220 241 235 249 255 252 255 249 246 250 270 287 304 298 238 280 240 258 211 258 276 244 247 246 257 263 267 259 259 263 275 278 269 272 270 269 270 269 269 267 266 265 265 264 263 262 261 260 258 257 256 255 253 254 254 257 260 258
19 17 16 18 17 17 19 21 20 21 22 22 21 19 15 20 16 15 14 9 4 6 1 358 347 333 319 284 238 246 228 231 220 235 232 237 242 257 260 264 279 308 313 300 256 276 233 245 317 256 261 268 262 252 284 286 284 280 286 284 276 276 274 271 269 268 268 268 268 269 269 268 266 264 263 261 259 257 254 252 251 251 252 254 256
26 23 21 21 24 23 24 22 22 21 23 22 23 23 23 28 25 19 17 3 9 6 359 3 350 347 344 340 325 300 270 239 247 234 234 226 230 233 221 230 249 264 304 309 313 323 306 304 310 293 251 267 274 301 285 269 271 267 263 256 253 256 259 260 259 260 263 264 265 267 267 267 266 266 265 265 263 261 258 254 251 249 249 249 251
29 25 25 25 24 25 26 25 22 23 23 21 21 21 22 27 24 26 18 12 16 12 11 1 359 352 349 350 351 337 326 302 280 271 253 246 240 229 224 232 213 236 263 279 290 317 302 219 190 301 278 258 242 254 224 252 244 250 248 245 246 247 248 250 254 257 262 264 267 268 269 270 270 268 266 265 264 263 261 259 256 251 249 249 249
29 26 26 25 24 25 26 25 23 23 21 22 19 21 20 24 20 17 13 12 17 18 11 8 359 359 356 353 353 347 340 336 325 315 294 271 266 246 249 232 223 231 248 262 287 265 336 304 286 227 287 292 271 269 264 251 256 252 250 248 250 250 255 261 262 261 264 267 269 269 270 271 271 271 271 268 267 266 265 263 260 257 253 250 249
31 29 30 28 25 26 25 27 26 23 21 20 20 21 22 24 18 16 9 9 11 13 7 9 4 1 359 358 355 351 344 338 336 335 329 320 312 301 287 260 252 241 239 261 265 281 286 286 299 306 302 298 298 295 289 279 250 257 264 257 255 260 261 259 264 262 259 263 265 266 268 271 273 274 274 273 272 270 268 266 264 262 258 254 251
30 32 32 29 26 26 26 28 28 24 19 18 18 21 26 22 18 14 10 9 9 6 4 5 6 3 0 356 353 353 350 348 342 337 337 334 328 319 308 301 292 275 263 265 279 289 282 254 291 300 308 315 305 317 303 302 299 292 280 272 275 274 268 265 267 267 265 259 258 261 263 263 265 268 270 271 271 272 271 270 268 266 264 259 254
33 35 33 30 27 25 27 25 26 25 20 17 13 19 25 21 18 15 9 7 7 4 4 4 0 1 356 355 352 352 352 350 343 343 341 338 337 333 326 317 301 299 278 283 284 288 296 304 294 294 297 310 301 316 308 309 307 304 298 296 286 269 276 279 276 273 267 267 261 259 261 262 261 260 261 263 267 268 268 269 269 268 267 266 263
35 36 33 31 29 28 28 25 22 25 20 15 11 13 21 20 15 13 10 7 5 2 2 0 357 354 356 355 351 349 347 348 349 343 342 341 336 334 324 318 310 300 295 273 287 294 298 299 300 299 303 305 298 307 309 302 298 297 296 295 291 287 275 272 275 276 273 270 273 270 261 261 260 258 256 256 263 266 265 264 264 264 263 262 261
38 33 34 32 32 30 29 25 21 21 21 15 13 14 14 15 11 8 7 7 5 0 358 355 355 357 354 351 349 347 345 345 344 344 344 341 337 334 327 324 316 312 302 298 279 285 297 299 305 299 300 299 300 298 300 298 300 301 289 289 287 282 281 274 272 277 276 274 272 271 269 267 265 263 258 260 263 263 262 262 262 261 260 259 258
36 34 31 32 32 29 26 21 18 18 17 11 13 13 13 11 6 4 4 5 3 358 355 353 352 355 353 351 344 344 344 343 342 342 340 340 337 333 331 327 325 318 315 311 305 298 298 299 302 296 295 289 286 292 299 303 302 296 297 293 292 288 285 277 275 274 276 275 273 272 270 268 267 266 267 267 265 263 261 259 259 259 258 257 257
36 35 33 29 30 26 24 17 17 16 12 10 11 12 8 5 3 2 3 4 1 354 350 350 352 355 352 346 344 343 343 343 338 336 337 337 334 335 333 333 331 328 325 321 316 313 305 302 306 308 303 303 302 290 298 295 300 305 302 298 293 289 290 289 274 270 267 266 280 276 269 265 263 261 261 262 263 263 262 261 259 257 257 255 255
36 33 30 33 27 27 21 16 16 14 9 6 9 10 6 3 1 359 2 4 359 352 346 345 348 351 349 344 342 343 342 339 340 344 344 342 345 347 349 347 345 342 339 336 333 326 321 314 309 302 305 297 296 305 305 293 293 293 300 306 299 294 287 292 296 287 276 275 261 262 266 268 268 267 264 261 260 259 260 261 260 259 257 255 253
36 33 28 27 25 26 23 19 12 15 7 4 9 10 7 2 359 0 2 1 355 349 346 347 349 348 345 344 342 342 344 350 358 354 352 351 350 349 346 345 343 341 336 332 329 325 321 317 313 318 313 310 310 293 301 305 298 293 286 296 302 307 307 295 284 296 295 282 286 277 266 268 268 265 264 264 262 261 261 261 260 259 258 257 256
35 35 29 25 21 22 22 21 15 16 11 6 9 6 2 1 0 0 4 0 353 348 348 348 346 348 350 353 353 352 352 351 351 351 351 352 349 343 343 344 338 333 325 321 318 315 311 307 306 307 305 307 308 311 311 310 304 301 304 300 291 292 294 297 295 280 277 287 281 279 275 266 273 271 270 269 261 257 256 253 255 255 255 257 257
33 30 28 23 24 20 14 11 12 16 11 3 6 6 6 3 359 1 4 359 352 347 347 347 348 356 360 356 348 346 346 345 346 349 350 348 343 338 332 333 330 326 322 317 316 311 307 306 306 311 310 303 307 310 301 296 293 292 293 291 287 294 295 280 276 276 280 284 286 280 273 267 270 275 268 268 267 252 260 257 249 251 252 251 253
29 28 24 22 23 17 15 9 8 11 5 359 3 4 3 2 360 360 5 356 347 344 349 353 353 355 352 346 340 340 342 344 350 350 342 336 332 330 328 327 325 325 322 320 314 320 320 313 312 310 303 301 301 300 294 298 305 320 327 324 317 315 309 310 305 310 214 244 291 300 289 269 270 280 279 270 271 263 255 257 253 251 251 252 252
23 25 26 22 21 17 14 11 10 7 1 357 1 0 0 359 357 2 10 354 350 352 360 359 353 348 342 340 341 341 345 351 350 342 335 332 331 333 334 336 336 331 326 322 322 321 322 315 314 312 312 311 314 322 322 333 328 317 312 306 305 305 304 303 300 296 314 342 325 310 298 296 285 282 283 276 272 269 261 259 255 252 253 253 252
18 24 21 17 18 15 14 11 7 2 357 355 359 359 359 359 3 7 9 0 356 357 357 353 347 344 339 341 343 348 346 348 344 332 327 329 334 333 330 326 323 320 318 317 316 311 309 304 301 301 308 313 312 312 320 321 320 310 308 298 299 296 292 290 288 293 296 309 303 294 290 290 286 274 281 276 270 268 267 260 256 254 254 254 253
20 19 16 16 12 13 9 8 3 359 355 354 357 358 358 2 3 3 0 354 352 353 351 346 346 344 348 348 345 344 345 347 338 336 337 331 324 321 320 319 317 319 320 320 318 314 311 306 308 308 313 314 308 313 318 317 311 306 306 301 301 295 293 288 294 291 287 287 280 290 282 282 279 268 267 276 273 263 263 261 257 255 253 251 250
17 17 11 8 5 5 0 2 360 356 353 352 357 359 1 359 357 2 0 355 352 348 345 347 353 352 355 349 351 350 348 346 337 335 330 330 335 341 341 339 340 335 330 323 316 316 321 322 319 318 319 323 319 318 313 310 302 299 300 302 305 301 298 290 282 272 277 261 260 255 272 282 283 276 265 277 279 268 257 265 257 257 255 253 251
17 16 11 10 1 2 355 0 358 352 350 352 359 3 359 358 5 3 358 350 348 351 355 3 358 359 354 353 352 346 341 336 331 337 343 344 341 337 334 330 330 332 329 327 326 332 336 332 330 329 330 328 326 323 323 322 320 318 313 307 301 297 294 291 285 290 280 283 250 256 265 273 280 282 281 280 280 275 267 261 256 254 254 254 253
10 10 7 360 354 355 358 360 356 347 348 354 6 359 1 3 1 354 352 355 357 0 357 355 355 352 350 353 349 344 338 336 340 346 345 345 342 340 338 337 335 336 336 334 345 351 342 336 331 328 325 323 321 319 316 314 311 314 314 318 323 328 321 313 303 303 297 309 296 293 288 285 288 286 283 275 277 278 276 270 261 260 259 256 253
3 4 355 355 353 357 2 357 350 349 339 5 1 0 5 359 357 358 357 2 357 353 351 352 349 347 345 346 348 344 343 343 345 345 347 349 348 344 341 337 337 334 333 340 353 340 336 330 324 320 317 318 318 318 318 316 316 317 354 335 329 332 325 319 310 310 310 312 306 280 264 262 274 273 276 265 262 253 261 263 265 258 254 254 253
1 354 349 353 351 353 4 352 350 352 3 10 1 7 0 357 1 6 1 359 353 349 347 345 344 345 345 345 349 349 349 345 345 346 348 349 346 344 342 339 334 334 335 349 350 336 337 333 328 328 327 324 319 317 315 321 327 354 352 336 332 330 318 316 311 312 309 304 317 335 320 310 301 294 304 302 287 279 264 272 272 271 266 263 253